SCP
0 0 0 0 0 -0 -0 0 0 0 -0 -0 -0 0 -0 0 -0 -0 -0 -0 -0 -0 -0 -0 0 -0 -0 -0 -0 -0 -0 -0 -0 -0 -0 -0 -0 0 0 -0 -0 -0 -0
0 0 0 0 0 -0 -0 0 0 -0 -0 -0 0 0 0 0 -0 0 -0 -0 -0 -0 -0 -0 -0 0 -0 -0 -0 -0 -0 -0 0 0 -0 -0 -0 -0 -0 -0 -0 -0 -0
0 0 0 0 0 -0 -0 -0 -0 -0 0 0 0 0 0 0 0 0 -0 0 -0 -0 -0 -0 -0 -0 -0 -0 -0 -0 -0 0 -0 -0 -0 -0 -0 -0 -0 -0 -0 -0 -0
0 0 0 0 -0 -0 -0 -0 -0 -0 -0 0 0 0 -0 0 0 0 0 0 -0 -0 -0 -0 -0 -0 -0 -0 -0 -0 0 0 0 0 -0 0 -0 -0 -0 -0 -0 -0 -0
0 0 0 0 0 -0 0 -0 -0 -0 -0 0 -0 -0 0 -0 0 0 0 0 -0 -0 0 -0 0 -0 -0 -0 -0 0 0 0 0 -0 -0 -0 -0 -0 -0 -0 -0 -0 -0
-0 -0 0 0 0 0 0 0 -0 -0 -0 -0 -0 -0 -0 0 0 0 -0 -0 0 -0 0 0 -0 0 -0 0 0 0 0 0 -0 -0 -0 -0 -0 -0 -0 -0 -0 -0 -0
-0 0 0 0 0 -0 -0 0 -0 -0 0 -0 -0 -0 0 0 0 0 0 -0 -0 -0 0 0 0 0 0 0 0 0 0 0 -0 -0 0 -0 -0 -0 -0 -0 -0 -0 -0
-0 0 0 0 0 0 0 0 -0 0 -0 -0 -0 -0 0 0 0 0 0 -0 -0 -0 0 0 0 0 -0 0 0 0 0 -0 -0 -0 -0 -0 -0 -0 -0 -0 -0 -0 -0
-0 -0 0 0 0 0 0 0 0 0 -0 -0 -0 -0 0 0 0 0 0 0 -0 -0 0 0 0 0 0 0 0 0 0 -0 -0 0 -0 -0 -0 -0 -0 -0 -0 -0 -0
-0 0 0 0 0 0 0 -0 0 0 0 0 0 -0 -0 -0 0 0 -0 0 -0 -0 0 0 0 0 0 -0 -0 0 -0 -0 0 0 -0 -0 -0 -0 -0 -0 -0 -0 -0
-0 0 0 0 0 0 0 -0 -0 0 -0 0 0 0 -0 0 -0 -0 -0 -0 -0 0 0 -0 -0 -0 -0 -0 -0 -0 -0 0 -0 -0 -0 -0 -0 -0 -0 -0 -0 -0 -0
0 0 -0 -0 0 0 0 0 0 0 0 0 -0 0 -0 0 0 -0 -0 0 -0 -0 -0 -0 -0 -0 -0 0 0 -0 0 -0 0 -0 -0 0 -0 -0 -0 -0 -0 -0 -0
0 -0 -0 -0 -0 -0 0 0 0 0 0 0 0 0 -0 0 0 0 0 -0 -0 -0 0 -0 0 -0 0 -0 -0 0 0 -0 0 -0 -0 0 -0 -0 -0 -0 -0 -0 -0
0 -0 -0 0 0 0 -0 0 0 0 0 0 0 0 0 0 0 0 0 0 -0 0 -0 0 -0 -0 -0 -0 0 -0 -0 0 0 -0 0 -0 0 -0 0 -0 -0 0 -0
-0 -0 0 0 0 0 0 0 0 0 0 0 0 0 0 0 0 0 0 0 0 -0 0 0 0 -0 -0 -0 0 0 0 0 0 -0 -0 -0 0 0 -0 -0 -0 -0 -0
0 0 0 0 0 0 0 0 0 0 0 0 -0 0 0 0 0 0 0 0 0 0 -0 0 0 0 -0 0 0 0 -0 0 0 0 -0 0 0 0 0 0 0 0 0
0 0 0 0 0 0 0 0 0 0 0 0 0 -0 0 0 0 0 0 0 -0 0 0 0 0 0 0 0 0 -0 -0 -0 -0 -0 0 0 0 0 -0 0 0 0 0
0 0 0 0 0 0 0 0 0 0 0 0 -0 -0 -0 -0 0 0 0 0 -0 0 0 0 0 -0 -0 -0 0 0 0 -0 -0 0 0 0 0 0 0 0 0 0 0
0 0 0 0 0 0 0 0 0 0 0 0 0 0 -0 0 0 0 0 0 0 0 0 0 0 -0 0 0 0 0 0 0 0 0 -0 0 0 0 -0 -0 -0 0 0
0 0 0 0 0 0 0 0 0 0 0 0 0 -0 -0 -0 0 0 0 0 0 0 0 0 0 0 0 0 0 -0 0 -0 -0 -0 -0 0 -0 0 -0 0 0 0 0
-0 0 0 0 0 0 0 0 0 -0 0 0 0 -0 -0 0 0 0 0 0 0 0 -0 0 0 0 0 0 0 0 0 0 0 -0 0 0 -0 0 -0 -0 0 0 0
0 0 0 0 0 0 0 0 0 0 -0 0 0 -0 0 -0 -0 0 0 0 0 0 0 0 0 -0 0 0 0 0 0 0 0 0 -0 -0 -0 0 0 0 0 0 0
0 0 0 0 0 0 0 0 0 0 0 0 -0 -0 -0 -0 -0 0 -0 0 0 0 0 0 0 0 0 -0 0 0 0 0 0 0 0 0 -0 0 0 0 0 0 0
0 0 0 0 1 0 1 0 0 0 -0 0 0 -0 -0 -0 -0 -0 -0 -0 0 0 -0 0 0 0 0 0 -0 0 -0 0 0 -0 0 0 0 0 0 0 0 0 0
0 0 0 0 1 1 0 0 0 0 0 0 -0 0 0 0 -0 -0 -0 -0 -0 -0 0 0 -0 -0 0 0 -0 -0 0 -0 -0 0 0 0 0 0 0 0 0 0 -0
-0 0 0 1 1 1 1 0 0 0 0 0 0 0 -0 0 0 -0 -0 -0 -0 0 -0 -0 0 0 0 0 0 0 -0 -0 0 0 0 0 -0 -0 0 0 0 0 0
Wind_Speed_500mb
42 42 39 37 37 33 26 25 26 29 23 16 18 21 15 12 12 13 12 11 10 9 8 8 10 12 14 17 18 19 23 26 27 27 29 30 32 35 41 41 33 29 31
47 45 43 38 34 30 29 28 27 22 19 16 18 18 13 10 12 14 12 13 17 15 12 12 12 12 12 13 16 19 21 23 26 30 31 27 30 28 32 31 23 31 30
49 45 42 38 33 30 29 26 22 20 18 16 15 15 14 14 15 13 16 17 16 18 17 18 18 17 14 16 18 19 21 26 27 32 28 23 24 26 25 26 29 32 32
47 40 36 36 33 29 25 22 20 19 18 17 17 17 18 17 15 21 18 18 19 21 23 25 21 22 20 21 19 21 25 33 31 32 26 29 21 27 27 30 33 32 28
45 40 38 34 32 30 28 24 24 23 21 21 20 20 20 21 18 21 18 18 21 22 24 23 24 26 24 24 23 25 31 36 28 32 23 27 21 27 31 31 28 32 25
44 37 40 36 33 31 29 27 25 24 24 23 24 25 23 21 20 18 20 21 23 23 23 26 26 25 27 28 27 27 33 39 35 21 17 26 21 25 26 26 25 26 28
43 38 38 35 34 30 30 27 25 25 25 25 24 26 26 21 19 18 18 17 20 23 24 27 24 24 25 23 24 28 35 38 20 18 26 19 22 25 26 27 26 26 27
42 40 35 36 32 29 26 28 26 25 26 26 25 27 26 20 19 20 18 16 19 22 28 26 27 30 25 24 26 30 40 30 17 21 14 16 24 24 25 26 23 25 24
42 40 33 31 32 28 29 28 27 24 26 25 26 26 25 22 21 19 18 15 18 21 23 26 27 24 25 25 29 32 37 30 29 26 22 18 23 23 23 24 22 23 23
44 37 35 29 27 26 29 27 26 24 26 26 29 26 24 26 27 28 24 23 25 22 22 23 22 25 27 29 33 41 39 35 21 29 19 19 21 20 21 21 22 22 21
41 38 35 31 28 26 26 25 25 24 24 28 33 32 32 16 19 18 16 26 28 25 24 22 23 24 26 31 38 35 29 19 20 23 17 23 21 21 20 20 18 19 19
45 40 36 31 29 28 25 23 17 16 18 20 21 18 28 15 23 15 22 27 29 27 25 26 29 17 32 26 22 28 27 17 17 18 16 21 21 18 18 17 17 17 16
47 42 37 35 29 31 27 24 19 15 15 15 19 20 18 14 15 20 15 18 23 25 21 23 8 15 25 18 24 25 19 18 18 17 15 17 17 17 16 16 16 15 14
49 43 39 35 33 25 24 24 20 19 19 14 16 19 16 16 10 16 19 11 16 3 14 13 10 7 8 15 32 21 12 16 17 12 13 16 14 15 16 17 15 14 12
50 44 40 36 36 24 29 20 22 20 20 25 13 15 8 13 12 8 12 11 8 22 13 8 10 20 17 11 12 16 19 17 14 14 7 10 12 12 11 11 11 9 9
50 47 42 37 35 28 25 24 21 21 29 18 17 15 17 17 13 10 8 5 7 8 25 7 6 6 8 14 16 12 24 15 21 13 10 10 9 8 7 6 7 7 6
51 47 43 39 35 30 24 29 24 21 19 15 17 16 14 12 16 13 8 6 9 2 10 7 11 15 6 6 19 9 10 15 12 13 5 5 13 13 7 4 3 2 3
50 49 45 40 36 33 28 28 24 21 18 18 14 15 15 13 19 14 9 10 6 5 12 16 9 22 5 20 7 16 17 14 10 15 8 4 8 1 11 12 3 1 2
52 49 47 44 39 37 31 29 25 24 21 19 20 18 13 12 11 4 12 8 15 8 4 6 6 17 13 14 15 13 7 11 13 21 11 11 3 4 5 13 12 7 5
52 50 49 46 44 41 33 31 27 25 21 19 15 14 13 9 7 9 7 8 12 6 6 5 8 8 16 6 10 16 13 8 7 6 10 8 8 4 5 7 10 10 16
55 52 52 51 48 45 38 35 32 29 28 24 19 16 13 13 10 12 8 5 14 7 4 8 7 21 12 8 7 17 7 7 10 11 7 4 3 4 5 4 5 7 17
60 56 56 56 53 51 41 37 33 31 27 23 21 18 17 14 14 9 2 11 9 5 10 12 8 17 12 11 18 7 6 11 15 7 5 5 6 5 6 4 8 12 9
65 64 61 62 59 55 44 40 36 33 30 27 29 20 21 18 14 15 11 12 9 16 7 9 9 12 8 9 11 15 9 16 20 7 6 6 1 5 5 8 6 8 8
71 66 65 66 64 56 58 44 44 40 37 32 27 24 24 22 18 14 13 12 13 12 14 10 12 10 12 10 9 7 3 12 13 9 9 8 7 5 8 7 7 8 9
71 70 67 69 70 61 67 51 50 44 36 32 30 32 30 24 24 19 16 14 12 11 17 14 15 20 11 8 13 9 4 4 4 5 11 13 6 7 7 1 7 6 10
71 70 69 73 76 75 70 68 58 52 43 37 35 33 32 26 25 26 20 19 14 15 12 13 14 23 18 16 10 14 12 7 7 10 8 5 3 3 5 8 9 9 10
Wind_Direction_500mb
156 165 160 155 155 155 158 154 146 157 158 147 136 153 135 108 100 102 101 102 88 83 94 113 118 119 110 102 98 93 89 85 79 78 85 83 88 91 92 85 70 85 87
144 148 150 152 152 147 150 147 148 148 152 143 140 143 128 107 109 105 93 87 92 83 87 100 118 108 121 116 109 102 106 97 82 77 77 80 89 90 97 104 104 90 90
141 147 141 145 145 145 144 147 149 147 154 156 148 139 129 124 120 104 100 91 84 75 83 92 97 122 112 118 113 109 110 101 85 82 102 81 86 98 96 96 91 88 89
138 137 143 144 146 144 141 146 144 143 149 147 141 133 123 120 105 104 100 89 81 83 86 94 97 102 101 115 113 113 103 104 86 84 75 91 84 88 88 91 88 83 83
139 143 151 145 143 142 141 142 142 140 137 136 133 127 122 112 111 104 96 86 79 90 91 98 100 103 102 112 109 108 107 97 84 71 102 96 88 93 95 92 85 94 94
144 148 144 143 142 140 138 136 138 135 133 132 133 129 115 113 107 105 99 89 87 92 92 98 99 107 103 98 98 109 113 97 83 100 104 107 113 102 99 100 104 98 94
146 145 142 143 139 137 137 134 135 132 129 128 129 128 120 117 108 97 91 95 96 93 94 100 96 107 102 101 95 102 110 93 110 115 101 90 104 103 102 103 96 92 94
148 141 141 142 140 141 136 136 134 135 129 125 125 125 127 118 104 98 90 86 100 104 103 105 95 98 99 97 92 102 110 107 102 102 104 108 102 104 102 103 101 96 94
146 147 144 142 140 138 138 134 131 132 129 131 123 124 120 116 102 82 77 90 111 115 111 103 100 101 92 98 92 98 106 102 110 105 103 93 101 105 104 104 101 104 96
151 149 146 146 140 136 141 136 134 133 127 125 120 115 110 101 85 77 63 88 109 118 119 113 103 101 99 98 92 90 96 89 103 102 88 98 102 106 104 107 101 99 96
156 154 152 147 146 142 144 142 139 132 124 120 112 101 101 91 98 90 112 95 105 117 121 114 109 110 104 93 92 92 84 89 96 103 101 96 99 103 102 105 101 101 93
160 160 158 158 153 146 146 132 136 137 117 117 140 95 107 143 124 117 102 99 101 106 109 106 112 142 138 113 94 94 89 97 100 90 112 108 102 101 103 107 102 95 88
164 163 162 155 153 150 171 140 149 146 148 163 152 125 143 137 136 122 103 101 96 98 108 96 87 73 77 114 78 84 127 116 111 104 113 115 105 105 96 103 98 97 95
168 167 166 166 163 159 151 153 159 156 155 154 164 142 157 139 139 187 137 119 146 65 87 177 115 86 44 74 85 129 115 94 108 109 119 124 119 116 108 108 108 108 95
171 171 170 171 168 166 162 163 164 161 155 160 164 151 189 148 156 123 149 143 222 159 131 124 143 171 143 81 100 91 108 107 103 125 49 119 127 122 129 127 125 120 117
175 175 176 175 173 171 160 169 163 163 180 148 162 174 155 147 153 152 132 151 98 330 102 79 186 120 115 122 87 132 79 113 117 82 84 79 93 101 115 116 126 139 139
179 179 180 178 178 175 171 173 168 173 174 163 181 215 165 132 169 143 173 101 213 59 183 154 150 123 100 97 95 138 117 102 111 122 171 83 77 66 61 75 98 144 150
181 183 183 180 184 178 176 175 174 183 179 175 170 159 154 169 157 153 170 126 165 114 207 147 160 159 106 123 128 133 119 115 109 122 107 101 69 46 25 35 9 48 20
184 186 185 183 186 181 183 179 176 190 176 172 173 187 181 160 157 87 149 162 128 128 141 153 215 131 106 157 121 111 151 116 163 128 103 134 65 75 10 337 358 41 15
187 189 187 187 188 187 187 181 179 192 181 180 195 190 177 186 195 172 116 204 118 133 185 114 81 124 141 109 166 119 146 147 130 137 129 160 142 150 196 332 353 336 342
191 190 190 190 191 189 186 185 186 189 182 184 184 188 203 179 197 176 158 125 136 169 104 138 132 155 139 158 134 145 118 165 192 186 178 176 173 199 203 255 150 310 296
193 193 194 192 195 193 188 187 187 185 187 194 197 206 194 194 196 178 172 127 174 182 173 171 222 152 159 200 150 122 177 183 188 199 167 209 221 198 216 274 220 219 220
196 196 197 194 198 197 189 188 189 191 194 198 199 211 202 195 199 175 187 197 179 148 185 158 199 210 166 196 246 202 208 256 166 179 149 181 147 197 202 236 235 244 243
199 198 199 199 198 201 183 195 193 189 193 196 199 202 203 194 197 206 200 193 172 170 185 178 184 200 154 167 198 240 325 29 49 105 172 195 222 190 203 222 231 255 238
199 200 200 203 202 199 198 191 200 191 199 196 193 196 194 204 192 202 209 211 196 152 179 175 190 173 200 179 193 170 177 129 97 299 260 172 159 199 236 315 228 247 273
201 202 202 204 206 204 209 194 200 202 195 202 199 199 200 203 203 200 208 203 207 193 209 188 197 186 181 195 185 191 194 194 201 226 291 214 142 211 223 241 248 242 241
Wind_Speed_850mb
42 42 39 37 37 33 26 25 26 29 23 16 18 21 15 12 12 13 12 11 10 9 8 8 10 12 14 17 18 19 23 26 27 27 29 30 32 35 41 41 33 29 31
47 45 43 38 34 30 29 28 27 22 19 16 18 18 13 10 12 14 12 13 17 15 12 12 12 12 12 13 16 19 21 23 26 30 31 27 30 28 32 31 23 31 30
49 45 42 38 33 30 29 26 22 20 18 16 15 15 14 14 15 13 16 17 16 18 17 18 18 17 14 16 18 19 21 26 27 32 28 23 24 26 25 26 29 32 32
47 40 36 36 33 29 25 22 20 19 18 17 17 17 18 17 15 21 18 18 19 21 23 25 21 22 20 21 19 21 25 33 31 32 26 29 21 27 27 30 33 32 28
45 40 38 34 32 30 28 24 24 23 21 21 20 20 20 21 18 21 18 18 21 22 24 23 24 26 24 24 23 25 31 36 28 32 23 27 21 27 31 31 28 32 25
44 37 40 36 33 31 29 27 25 24 24 23 24 25 23 21 20 18 20 21 23 23 23 26 26 25 27 28 27 27 33 39 35 21 17 26 21 25 26 26 25 26 28
43 38 38 35 34 30 30 27 25 25 25 25 24 26 26 21 19 18 18 17 20 23 24 27 24 24 25 23 24 28 35 38 20 18 26 19 22 25 26 27 26 26 27
42 40 35 36 32 29 26 28 26 25 26 26 25 27 26 20 19 20 18 16 19 22 28 26 27 30 25 24 26 30 40 30 17 21 14 16 24 24 25 26 23 25 24
42 40 33 31 32 28 29 28 27 24 26 25 26 26 25 22 21 19 18 15 18 21 23 26 27 24 25 25 29 32 37 30 29 26 22 18 23 23 23 24 22 23 23
44 37 35 29 27 26 29 27 26 24 26 26 29 26 24 26 27 28 24 23 25 22 22 23 22 25 27 29 33 41 39 35 21 29 19 19 21 20 21 21 22 22 21
41 38 35 31 28 26 26 25 25 24 24 28 33 32 32 16 19 18 16 26 28 25 24 22 23 24 26 31 38 35 29 19 20 23 17 23 21 21 20 20 18 19 19
45 40 36 31 29 28 25 23 17 16 18 20 21 18 28 15 23 15 22 27 29 27 25 26 29 17 32 26 22 28 27 17 17 18 16 21 21 18 18 17 17 17 16
47 42 37 35 29 31 27 24 19 15 15 15 19 20 18 14 15 20 15 18 23 25 21 23 8 15 25 18 24 25 19 18 18 17 15 17 17 17 16 16 16 15 14
49 43 39 35 33 25 24 24 20 19 19 14 16 19 16 16 10 16 19 11 16 3 14 13 10 7 8 15 32 21 12 16 17 12 13 16 14 15 16 17 15 14 12
50 44 40 36 36 24 29 20 22 20 20 25 13 15 8 13 12 8 12 11 8 22 13 8 10 20 17 11 12 16 19 17 14 14 7 10 12 12 11 11 11 9 9
50 47 42 37 35 28 25 24 21 21 29 18 17 15 17 17 13 10 8 5 7 8 25 7 6 6 8 14 16 12 24 15 21 13 10 10 9 8 7 6 7 7 6
51 47 43 39 35 30 24 29 24 21 19 15 17 16 14 12 16 13 8 6 9 2 10 7 11 15 6 6 19 9 10 15 12 13 5 5 13 13 7 4 3 2 3
50 49 45 40 36 33 28 28 24 21 18 18 14 15 15 13 19 14 9 10 6 5 12 16 9 22 5 20 7 16 17 14 10 15 8 4 8 1 11 12 3 1 2
52 49 47 44 39 37 31 29 25 24 21 19 20 18 13 12 11 4 12 8 15 8 4 6 6 17 13 14 15 13 7 11 13 21 11 11 3 4 5 13 12 7 5
52 50 49 46 44 41 33 31 27 25 21 19 15 14 13 9 7 9 7 8 12 6 6 5 8 8 16 6 10 16 13 8 7 6 10 8 8 4 5 7 10 10 16
55 52 52 51 48 45 38 35 32 29 28 24 19 16 13 13 10 12 8 5 14 7 4 8 7 21 12 8 7 17 7 7 10 11 7 4 3 4 5 4 5 7 17
60 56 56 56 53 51 41 37 33 31 27 23 21 18 17 14 14 9 2 11 9 5 10 12 8 17 12 11 18 7 6 11 15 7 5 5 6 5 6 4 8 12 9
65 64 61 62 59 55 44 40 36 33 30 27 29 20 21 18 14 15 11 12 9 16 7 9 9 12 8 9 11 15 9 16 20 7 6 6 1 5 5 8 6 8 8
71 66 65 66 64 56 58 44 44 40 37 32 27 24 24 22 18 14 13 12 13 12 14 10 12 10 12 10 9 7 3 12 13 9 9 8 7 5 8 7 7 8 9
71 70 67 69 70 61 67 51 50 44 36 32 30 32 30 24 24 19 16 14 12 11 17 14 15 20 11 8 13 9 4 4 4 5 11 13 6 7 7 1 7 6 10
71 70 69 73 76 75 70 68 58 52 43 37 35 33 32 26 25 26 20 19 14 15 12 13 14 23 18 16 10 14 12 7 7 10 8 5 3 3 5 8 9 9 10
Wind_Direction_850mb
156 165 160 155 155 155 158 154 146 157 158 147 136 153 135 108 100 102 101 102 88 83 94 113 118 119 110 102 98 93 89 85 79 78 85 83 88 91 92 85 70 85 87
144 148 150 152 152 147 150 147 148 148 152 143 140 143 128 107 109 105 93 87 92 83 87 100 118 108 121 116 109 102 106 97 82 77 77 80 89 90 97 104 104 90 90
141 147 141 145 145 145 144 147 149 147 154 156 148 139 129 124 120 104 100 91 84 75 83 92 97 122 112 118 113 109 110 101 85 82 102 81 86 98 96 96 91 88 89
138 137 143 144 146 144 141 146 144 143 149 147 141 133 123 120 105 104 100 89 81 83 86 94 97 102 101 115 113 113 103 104 86 84 75 91 84 88 88 91 88 83 83
139 143 151 145 143 142 141 142 142 140 137 136 133 127 122 112 111 104 96 86 79 90 91 98 100 103 102 112 109 108 107 97 84 71 102 96 88 93 95 92 85 94 94
144 148 144 143 142 140 138 136 138 135 133 132 133 129 115 113 107 105 99 89 87 92 92 98 99 107 103 98 98 109 113 97 83 100 104 107 113 102 99 100 104 98 94
146 145 142 143 139 137 137 134 135 132 129 128 129 128 120 117 108 97 91 95 96 93 94 100 96 107 102 101 95 102 110 93 110 115 101 90 104 103 102 103 96 92 94
148 141 141 142 140 141 136 136 134 135 129 125 125 125 127 118 104 98 90 86 100 104 103 105 95 98 99 97 92 102 110 107 102 102 104 108 102 104 102 103 101 96 94
146 147 144 142 140 138 138 134 131 132 129 131 123 124 120 116 102 82 77 90 111 115 111 103 100 101 92 98 92 98 106 102 110 105 103 93 101 105 104 104 101 104 96
151 149 146 146 140 136 141 136 134 133 127 125 120 115 110 101 85 77 63 88 109 118 119 113 103 101 99 98 92 90 96 89 103 102 88 98 102 106 104 107 101 99 96
156 154 152 147 146 142 144 142 139 132 124 120 112 101 101 91 98 90 112 95 105 117 121 114 109 110 104 93 92 92 84 89 96 103 101 96 99 103 102 105 101 101 93
160 160 158 158 153 146 146 132 136 137 117 117 140 95 107 143 124 117 102 99 101 106 109 106 112 142 138 113 94 94 89 97 100 90 112 108 102 101 103 107 102 95 88
164 163 162 155 153 150 171 140 149 146 148 163 152 125 143 137 136 122 103 101 96 98 108 96 87 73 77 114 78 84 127 116 111 104 113 115 105 105 96 103 98 97 95
168 167 166 166 163 159 151 153 159 156 155 154 164 142 157 139 139 187 137 119 146 65 87 177 115 86 44 74 85 129 115 94 108 109 119 124 119 116 108 108 108 108 95
171 171 170 171 168 166 162 163 164 161 155 160 164 151 189 148 156 123 149 143 222 159 131 124 143 171 143 81 100 91 108 107 103 125 49 119 127 122 129 127 125 120 117
175 175 176 175 173 171 160 169 163 163 180 148 162 174 155 147 153 152 132 151 98 330 102 79 186 120 115 122 87 132 79 113 117 82 84 79 93 101 115 116 126 139 139
179 179 180 178 178 175 171 173 168 173 174 163 181 215 165 132 169 143 173 101 213 59 183 154 150 123 100 97 95 138 117 102 111 122 171 83 77 66 61 75 98 144 150
181 183 183 180 184 178 176 175 174 183 179 175 170 159 154 169 157 153 170 126 165 114 207 147 160 159 106 123 128 133 119 115 109 122 107 101 69 46 25 35 9 48 20
184 186 185 183 186 181 183 179 176 190 176 172 173 187 181 160 157 87 149 162 128 128 141 153 215 131 106 157 121 111 151 116 163 128 103 134 65 75 10 337 358 41 15
187 189 187 187 188 187 187 181 179 192 181 180 195 190 177 186 195 172 116 204 118 133 185 114 81 124 141 109 166 119 146 147 130 137 129 160 142 150 196 332 353 336 342
191 190 190 190 191 189 186 185 186 189 182 184 184 188 203 179 197 176 158 125 136 169 104 138 132 155 139 158 134 145 118 165 192 186 178 176 173 199 203 255 150 310 296
193 193 194 192 195 193 188 187 187 185 187 194 197 206 194 194 196 178 172 127 174 182 173 171 222 152 159 200 150 122 177 183 188 199 167 209 221 198 216 274 220 219 220
196 196 197 194 198 197 189 188 189 191 194 198 199 211 202 195 199 175 187 197 179 148 185 158 199 210 166 196 246 202 208 256 166 179 149 181 147 197 202 236 235 244 243
199 198 199 199 198 201 183 195 193 189 193 196 199 202 203 194 197 206 200 193 172 170 185 178 184 200 154 167 198 240 325 29 49 105 172 195 222 190 203 222 231 255 238
199 200 200 203 202 199 198 191 200 191 199 196 193 196 194 204 192 202 209 211 196 152 179 175 190 173 200 179 193 170 177 129 97 299 260 172 159 199 236 315 228 247 273
201 202 202 204 206 204 209 194 200 202 195 202 199 199 200 203 203 200 208 203 207 193 209 188 197 186 181 195 185 191 194 194 201 226 291 214 142 211 223 241 248 242 241